Location: Banios
(43.0451°N, 0.2335°E)
Time: 13:29:59
(UTC+00:00)

Cosmos 1891 Rocket - Pass Details

Date: 25 January 2021
Orbit: 934 x 1018 km, 82.9° (Epoch: 26 February)

Event Time Altitude Azimuth Distance (km) Brightness Sun altitude
Rises 04:54:23 0° 193° (SSW) 3,652 7.4 -26.7°
Reaches altitude 10° 04:56:55 10° 196° (SSW) 2,697 6.7 -26.2°
Maximum altitude 05:03:03 69° 279° (W) 1,017 4.3 -25.1°
Drops below altitude 10° 05:09:07 10° 3° (N) 2,666 6.8 -24.0°
Sets 05:11:37 0° 6° (N) 3,609 7.5 -23.5°
